Location: Borojevi?i
(45.0486°N, 16.2297°E)
Time: 05:54:42
(UTC+00:00)

CENTAUR R/B - Pass Details

Date: 08 August 2020
Orbit: 756 x 1432 km, 63.4° (Epoch: 19 September)

Event Time Altitude Azimuth Distance (km) Brightness Sun altitude
Exits shadow 22:51:55 - 261° (W) 2,827 4.9 -29.1°
Reaches altitude 10° 22:52:28 10° 264° (W) 2,656 4.7 -29.1°
Maximum altitude 22:58:04 33° 328° (NNW) 1,684 4.1 -29.2°
Drops below altitude 10° 23:04:35 10° 30° (NNE) 3,103 5.8 -29.2°
Sets 23:07:55 0° 40° (NE) 4,180 6.5 -29.1°
